STARLINK-11306, 61254

Orbit data source: Space-Track

STARLINK-11306, 61254 is a payload satellite owned by SpaceX/Seattle (US) in LEO that was launched on Wed, 25 Sep 2024 UTC via an FALCON 9 launch vehicle from the Air Force Western Test Range (AFWTR). Payload-class satellites include a variety of spacecraft equipped with specific instruments for various scientific and technological missions. These include communications satellites like Starlink; space stations such as the ISS; scientific satellites like the Hubble; Earth observation satellites from companies like Planet Labs, Umbra, and HawkEye 360; GPS; miniature CubeSats for education and research; and military/defense satellites.

Loading next visibility...
Identifier
61254, 2024-175M
Orbit
LEO
Country
Flag of USUS
Related business
Manufacturer
SpaceX/Seattle
Mission
Operational Commercial Communications
Bus & Motor
STARLINK V2M, Unknown motor
Mass
730 kg wet, ~700 kg dry
Launch date (UTC)
2024-09-25 (11 months ago)
Launch vehicle
FALCON 9
Launch site
Air Force Western Test Range (AFWTR)
Object type
Payload
Rocket body
Debris
Shape & HBR
Box + 2 Pan, 14.5 m
Radar Cross Section
36.964 m², Large (>1 m²)

Expand to show TLE details & history
Last TLE update: 10 hours ago

TLE from 10 hours ago
0 STARLINK-11306
1 61254U 24175M   25241.84783155 -.00000081  00000-0  41938-5 0  9992
2 61254  53.1590 282.1123 0001269  76.3843 283.7316 15.69701071 54434
Epoch: 2025-08-29T20:20Z
TLE epoch observation values (Epoch: 2025-08-29T20:20:52.645Z)
Latitude
-0.00006°
Longitude
-1.3977°
Altitude
360.464 km
Speed
7.694 km/s
True Right ascension
18h 48m 26s
True Declination
0° 00' 00"
Sunlit
Object was in full shadow at epoch
Visualization orbit readout
Latitude
Unknown
Longitude
Unknown
Altitude
Unknown
Speed
Unknown
Apparent Right ascension
Unknown
Apparent Declination
Unknown
Sunlit
N/A
Visualization observer readout
Local Sidereal Time
22:17:27
Azimuth
Unknown
Elevation
Unknown
Doppler factor
Unknown
Orbital elements
Apogee altitude
360.868 km
Perigee altitude
359.158 km
Semi-major axis
6,738.15 km
Eccentricity
0.00013
Inclination
53.159°
RAAN
282.1123°
Arg. of periapsis
76.3843°
True anomaly
283.71747°
Mean anomaly
283.7316°
Eccentric anomaly
283.72454°
Mean motion
3.92403 °/min
Orbital period
91.74 mins
BSTAR
0.0000041938
Loading maneuver chart data...
Computing Atmospheric mass density...
Loading historical data...
Loading historical data...
Loading historical data...
Loading historical data...
Loading historical data...
Loading historical data...
Loading historical data...

Documentation

Showing up to 5 results
|